DECAYED

CZ-7 DEB, 64789 (Decayed)

Orbit data source: Space-Track

CZ-7 DEB, 64789 was space debris in LEO originally from a launch on Mon, 14 Jul 2025 UTC launched from the Wenchang Satellite Launch Center (WSC). Debris objects in space refer to the collection of defunct objects orbiting the Earth. Examples of debris include non-operational satellites, rocket bodies, and fragments generated from explosions, collisions, or faulty payload assembly.

Not visible in the next 10 days
Identifier
64789, 2025-149D
Orbit
Decayed
Country
Flag of CNCN / PRC
Related business
None
Manufacturer
CALT
Mission
Decayed spacecraft
Bus & Motor
Unknown
Mass
Unknown
Launch date (UTC)
2025-07-14 (2 months ago)
Launch vehicle
Unknown
Launch site
Wenchang Satellite Launch Center (WSC)
Object type
Payload
Rocket body
Debris
Shape & HBR
Unknown
Radar Cross Section
Small (<0.1 m²)

Expand to show TLE details & history
Last TLE update: 1 month ago

TLE from 1 month ago
0 CZ-7 DEB
1 64789U 25149D   25199.36381063  .11742993  70081-5  37420-2 0  9996
2 64789  41.7768 190.6550 0099314 198.2351 304.2750 16.13641635   557
Epoch: 2025-07-18T08:43Z
TLE epoch observation values (Epoch: 2025-07-18T08:43:53.238Z)
Latitude
24.55951°
Longitude
-87.30283°
Altitude
199.966 km
Speed
7.812 km/s
True Right ascension
22h 40m 20s
True Declination
24° 25' 08"
Sunlit
Object was in full shadow at epoch
Visualization orbit readout
Latitude
Unknown
Longitude
Unknown
Altitude
Unknown
Speed
Unknown
Apparent Right ascension
Unknown
Apparent Declination
Unknown
Sunlit
N/A
Visualization observer readout
Local Sidereal Time
11:28:47
Azimuth
Unknown
Elevation
Unknown
Doppler factor
Unknown
Orbital elements
Apogee altitude
304.821 km
Perigee altitude
173.384 km
Semi-major axis
6,617.239 km
Eccentricity
0.00993
Inclination
41.7768°
RAAN
190.655°
Arg. of periapsis
198.2351°
True anomaly
303.328°
Mean anomaly
304.275°
Eccentric anomaly
303.80216°
Mean motion
4.03207 °/min
Orbital period
89.28 mins
BSTAR
0.003742
Loading maneuver chart data...
Computing Atmospheric mass density...
Loading historical data...
Loading historical data...
Loading historical data...
Loading historical data...
Loading historical data...
Loading historical data...
Loading historical data...
Other satellites on launch #149 in the year 2025 (2025-07-14 UTC)

Documentation

Showing up to 5 results
|